STARLINK-1477, 45754

Orbit data source: Space-Track

STARLINK-1477, 45754 is a payload satellite owned by SpaceX/Seattle (US) in LEO that was launched on Sat, 13 Jun 2020 UTC via an FALCON 9 launch vehicle from the Air Force Eastern Test Range (AFETR). Payload-class satellites include a variety of spacecraft equipped with specific instruments for various scientific and technological missions. These include communications satellites like Starlink; space stations such as the ISS; scientific satellites like the Hubble; Earth observation satellites from companies like Planet Labs, Umbra, and HawkEye 360; GPS; miniature CubeSats for education and research; and military/defense satellites.

Loading next visibility...
Identifier
45754, 2020-038AA
Orbit
LEO
Country
Flag of USUS
Related business
Manufacturer
SpaceX/Seattle
Mission
Partially operational Commercial Communications
Bus & Motor
STARLINK, Unknown motor
Mass
260 kg wet, ~248 kg dry
Launch date (UTC)
2020-06-13 (6 years ago)
Launch vehicle
FALCON 9
Launch site
Air Force Eastern Test Range (AFETR)
Object type
Payload
Rocket body
Debris
Shape & HBR
Box + 1 Pan, 10.1 m
Radar Cross Section
13.562 m², Large (>1 m²)

Expand to show TLE details & history
Last TLE update: 17 hours ago

TLE from 17 hours ago
0 STARLINK-1477
1 45754U 20038AA  26198.36458111  .00014590  00000-0  66458-3 0  9994
2 45754  53.0512 340.5502 0000883  18.5999 341.5028 15.20913154336222
Epoch: 2026-07-17T08:44Z
TLE epoch observation values (Epoch: 2026-07-17T08:44:59.807Z)
Latitude
-0.00008°
Longitude
-85.89179°
Altitude
503.393 km
Speed
7.614 km/s
True Right ascension
22h 42m 12s
True Declination
0° 00' 00"
Sunlit
Object was in full shadow at epoch
Visualization orbit readout
Latitude
Unknown
Longitude
Unknown
Altitude
Unknown
Speed
Unknown
Apparent Right ascension
Unknown
Apparent Declination
Unknown
Sunlit
N/A
Visualization observer readout
Local Sidereal Time
14:50:43
Azimuth
Unknown
Elevation
Unknown
Doppler factor
Unknown
Orbital elements
Apogee altitude
503.965 km
Perigee altitude
502.75 km
Semi-major axis
6,881.495 km
Eccentricity
0.00009
Inclination
53.0512°
RAAN
340.5502°
Arg. of periapsis
18.5999°
True anomaly
341.49959°
Mean anomaly
341.5028°
Eccentric anomaly
341.50119°
Mean motion
3.80206 °/min
Orbital period
94.69 mins
BSTAR
0.00066458
Loading maneuver chart data...
Computing Atmospheric mass density...

Documentation

Showing up to 5 results
|